Regional Weather Roundup
Issued by NWS State College, PA

Home | Current Version | Previous Version | Text Only | Print | Product List | Glossary Off
Versions: 1 2 3 4 5 6 7 8 9 10 11 12 13 14 15 16 17 18 19 20 21 22 23 24 25 26 27 28 29 30 31 32 33 34 35 36 37 38 39 40 41 42 43 44 45 46 47 48 49 50

195
ASUS41 KCTP 300110
RWRCTP

REGIONAL WEATHER ROUNDUP
NATIONAL WEATHER SERVICE STATE COLLEGE PA
900 PM EDT SAT APR 29 2017

Note: "fair" indicates few or no clouds below 12,000 feet with no
significant weather and/or obstructions to visibility.

* = STATION THAT DOES NOT REPORT PRECIPITATION /E.G. RAIN...SNOW...ETC/
    THUNDER OR FOG.

PAZ002>004-007>009-013>016-020>023-029>032-300200-
WESTERN PENNSYLVANIA

CITY           SKY/WX    TMP DP  RH WIND       PRES   REMARKS
ERIE           CLOUDY    51  41  68 NE6       30.21R
MEADVILLE      CLOUDY    51  49  92 NE7       30.18R
FRANKLIN*      CLOUDY    54  48  82 NE7       30.18F
NEW CASTLE     CLOUDY    53  52  96 N7        30.17S
BEAVER COUNTY  NOT AVBL
BUTLER*        CLOUDY    59  57  94 N13       30.15S
PITTSBURGH INT CLOUDY    61  59  93 N10       30.13R
PITTSBURGH     CLEAR     65  60  84 N7        30.11R
INDIANA*       CLOUDY    64  61  88 N5        30.16R
LATROBE        CLEAR     68  64  88 CALM      30.12R
WASHINGTON CO* CLEAR     64  61  88 N7        30.12S
$$

PAZ004>006-010>012-017>019-024>028-033>037-041-042-045-046-049>053-300200-
CENTRAL PENNSYLVANIA

CITY           SKY/WX    TMP DP  RH WIND       PRES   REMARKS
BRADFORD       CLOUDY    51  51 100 CALM      30.20R FOG
DUBOIS         CLOUDY    56  54  93 N9        30.16R FOG
CLEARFIELD     CLOUDY    63  59  87 N6        30.16R
JOHNSTOWN      CLEAR     67  61  81 NW8       30.15R
ALTOONA        PTCLDY    70  61  73 CALM      30.13R
STATE COLLEGE  MOCLDY    68  59  73 N7        30.14R
WILLIAMSPORT   MOCLDY    66  56  70 N8        30.12R
SELINSGROVE    MOCLDY    69  60  73 N13       30.11R
FT INDIANTOWN  CLEAR     74  60  61 NW7       30.08R
CAPITAL CITY   CLEAR     73  62  68 CALM      30.07R
HARRISBURG     MOCLDY    69  65  86 CALM      30.07R
YORK           PTCLDY    69  66  90 CALM      30.08R
$$

PAZ038>040-043-044-047-048-054-055-060>062-067>071-300200-
EASTERN PENNSYLVANIA

CITY           SKY/WX    TMP DP  RH WIND       PRES   REMARKS
SCRANTON       CLOUDY    63  54  72 N7        30.15R
MOUNT POCONO   MOCLDY    60  55  83 N13G20    30.15R
ALLENTOWN      PTCLDY    73  60  63 N9        30.08R
QUAKERTOWN*    PTCLDY    70  63  78 CALM      30.08R
READING        PTCLDY    74  61  63 CALM      30.06R
LANCASTER      PTCLDY    76  64  66 CALM      30.07R
COATESVILLE    CLEAR     73  63  68 CALM      30.10R
POTTSTOWN      CLEAR     70  61  73 CALM      30.08R
BLUE BELL      CLEAR     66  63  88 CALM      30.08R
DOYLESTOWN     PTCLDY    74  63  68 CALM      30.06R
WILLOW GROVE   NOT AVBL
NORTH PHILA    CLEAR     76  61  59 W3        30.06R
PHILADELPHIA   MOCLDY    79  61  53 W6        30.05R
$$




USA.gov is the U.S. government's official web portal to all federal, state and local government web resources and services.